Location: Shepherdstown, WV
(39.4326°N, 77.8042°W)
Time: 13:08:01
(UTC-04:00)

Tiros 1 despin weight - Pass Details

Date: 01 August 2021
Orbit: 593 x 641 km, 48.2° (Epoch: 21 September)

Event Time Altitude Azimuth Distance (km) Brightness Sun altitude
Rises 16:45:47 0° 285° (WNW) 2,938 ? 40.3°
Reaches altitude 10° 16:48:24 10° 297° (WNW) 2,031 ? 39.8°
Maximum altitude 16:52:26 28° 356° (N) 1,210 ? 39.0°
Drops below altitude 10° 16:56:28 10° 56° (NE) 2,028 ? 38.2°
Sets 16:59:05 0° 68° (ENE) 2,933 ? 37.7°
